Tracking 27122 objects as of 24-Mar-2023
HD Live streaming from Space Station
objects crossing your sky now

STARLINK-3713

Track STARLINK-3713 now!
10-day predictions
STARLINK-3713 is classified as:


NORAD ID: 52091
Int'l Code: 2022-029D
Perigee: 546.6 km
Apogee: 547.1 km
Inclination: 53.2 °
Period: 95.4 minutes
Semi major axis: 6917 km
RCS: Unknown
Launch date: March 19, 2022
Source: United States (US)
Launch site: AIR FORCE EASTERN TEST RANGE (AFETR)
Your satellite tracking list
Your tracking list is empty




NASA's NSSDC Master Catalog

Two Line Element Set (TLE):
1 52091U 22029D   23082.78891266  .00000684  00000-0  61004-4 0  9997
2 52091  53.2144 265.9644 0000358 151.5407 208.5604 15.08843321 57320
Source of the keplerian elements: AFSPC